Location: Gull Harbor
(47.1000°N, 122.9000°W)
Time: 07:25:47
(UTC-07:00)

Amateur Radio Satellites - All Passes

Search period start: 23 March 2017 06:55
Search period end: 24 March 2017 06:55
Location: Gull Harbor, 47.1000°N, 122.9000°W

Satellite Date Start Highest point End Downlink Frequencies (MHz)
Time Altitude Azimuth
M-CUBED/EXP-1 PRIME 23 Mar 07:02:18 07:05:22 26° 261° (W) 07:08:40 437.505
DOVE 4 23 Mar 07:16:37 07:21:57 75° 103° (ESE) 07:27:14 437.250
LilacSat-2 23 Mar 07:25:04 07:28:52 73° 102° (ESE) 07:32:37 437.200
XW-2F 23 Mar 07:30:41 07:34:27 79° 103° (ESE) 07:38:10 145.980 - 146.000
CUTE-I 23 Mar 07:35:38 07:41:00 70° 102° (ESE) 07:46:20 437.470
STRAND 1 23 Mar 07:39:19 07:44:28 90° 75° (ENE) 07:49:40 437.568
XW-2A 23 Mar 07:47:06 07:49:24 17° 93° (E) 07:51:41 145.665 - 145.685
AO-7 23 Mar 07:49:15 07:54:25 19° 319° (NW) 07:59:35 .
XW-2D 23 Mar 07:54:16 07:57:56 51° 287° (WNW) 08:01:34 145.860 - 145.880
XW-2B 23 Mar 08:00:09 08:03:46 45° 288° (WNW) 08:07:20 145.730 - 145.750
NO-84 23 Mar 08:03:42 08:04:50 12° 129° (SE) 08:05:57 435.350 FM
HO-68 23 Mar 08:07:10 08:13:38 35° 96° (E) 08:20:03 435.675
NUDT-PHONESAT 23 Mar 08:07:41 08:11:14 44° 288° (WNW) 08:14:44 437.300
KAITUO 1B 23 Mar 08:10:07 08:13:37 41° 289° (WNW) 08:17:06 145.475/437.950
XW-2C 23 Mar 08:10:17 08:13:44 34° 290° (WNW) 08:17:09 145.795 - 145.815
BEESAT 3 23 Mar 08:18:26 08:22:27 68° 50° (NE) 08:26:27 437.485
BEESAT 2 23 Mar 08:25:34 08:29:23 37° 45° (NE) 08:33:11 435.950
AAUSAT CUBESAT 2 23 Mar 08:36:40 08:39:36 18° 92° (E) 08:42:31 437.432
YUBILEINY 23 Mar 08:38:53 08:47:32 71° 94° (E) 08:56:12 435.215
CUTE 1.7 + AOD 2 23 Mar 08:39:40 08:43:50 58° 101° (E) 08:47:59 437.475
SEEDS 23 Mar 08:40:12 08:44:08 38° 98° (E) 08:48:03 437.485
UNISAT 6 23 Mar 08:43:25 08:45:01 12° 56° (ENE) 08:46:38 437.425
UWE-3 23 Mar 08:53:44 08:57:19 24° 93° (E) 09:00:49 435.000/436.395/437.385
DOVE 4 23 Mar 08:55:23 08:59:02 19° 300° (WNW) 09:02:40 437.250
LilacSat-2 23 Mar 09:01:27 09:02:35 11° 300° (WNW) 09:03:42 437.200
PRISM 23 Mar 09:01:31 09:04:55 26° 66° (ENE) 09:08:22 437.425
XW-2F 23 Mar 09:07:27 09:08:00 10° 300° (WNW) 09:08:32 145.980 - 146.000
CUTE-I 23 Mar 09:16:41 09:20:32 21° 302° (WNW) 09:24:22 437.470
CUBEBUG 2 23 Mar 09:18:53 09:23:24 70° 101° (ESE) 09:27:44 437.445
XW-2A 23 Mar 09:19:12 09:22:16 32° 290° (WNW) 09:25:20 145.665 - 145.685
STRAND 1 23 Mar 09:22:04 09:24:22 13° 273° (W) 09:26:41 437.568
FO-29 23 Mar 09:33:56 09:40:41 34° 61° (ENE) 09:47:06 435.910
NO-84 23 Mar 09:39:05 09:41:56 76° 327° (NNW) 09:44:51 435.350 FM
Oscar 11 23 Mar 09:42:15 09:46:14 35° 97° (E) 09:50:11 .
ZACube-1 23 Mar 09:42:42 09:46:51 45° 98° (E) 09:50:53 437.345
HO-68 23 Mar 09:54:42 10:01:36 53° 295° (WNW) 10:08:30 435.675
BEESAT 3 23 Mar 09:57:22 09:59:34 14° 249° (WSW) 10:01:44 437.485
BEESAT 2 23 Mar 10:03:34 10:07:03 28° 244° (WSW) 10:10:30 435.950
TIGRISAT 23 Mar 10:07:18 10:11:56 60° 72° (ENE) 10:16:33 435.000
AAUSAT CUBESAT 2 23 Mar 10:11:20 10:15:17 44° 289° (WNW) 10:19:13 437.432
AO-73 23 Mar 10:13:17 10:17:35 87° 108° (ESE) 10:21:46 145.935
UNISAT 6 23 Mar 10:16:15 10:20:57 78° 74° (ENE) 10:25:39 437.425
SEEDS 23 Mar 10:16:21 10:19:36 22° 295° (WNW) 10:22:51 437.485
CUTE 1.7 + AOD 2 23 Mar 10:16:37 10:19:15 16° 298° (WNW) 10:21:52 437.475
POLYITAN 1 23 Mar 10:26:51 10:27:51 11° 57° (ENE) 10:28:51 437.675
DELFI C3 23 Mar 10:28:45 10:32:25 34° 97° (E) 10:36:04 145.870
UWE-3 23 Mar 10:29:51 10:33:53 36° 292° (WNW) 10:37:48 435.000/436.395/437.385
QB50P2 23 Mar 10:30:24 10:32:12 12° 58° (ENE) 10:33:59 145.880/145.840
PRISM 23 Mar 10:36:31 10:40:07 30° 263° (W) 10:43:46 437.425
YUBILEINY 23 Mar 10:37:40 10:45:08 30° 297° (WNW) 10:52:38 435.215
DUCHIFAT 1 23 Mar 10:47:43 10:50:01 14° 60° (ENE) 10:52:18 145.980
PCSat 23 Mar 10:50:08 10:55:13 42° 114° (ESE) 11:00:19 145.827
CUBEBUG 2 23 Mar 10:56:49 10:59:26 15° 301° (WNW) 11:02:00 437.445
FO-29 23 Mar 11:17:30 11:25:18 64° 259° (W) 11:32:43 435.910
NO-84 23 Mar 11:17:33 11:19:52 21° 349° (NNW) 11:22:16 435.350 FM
Oscar 11 23 Mar 11:18:41 11:22:13 25° 295° (WNW) 11:25:44 .
ZACube-1 23 Mar 11:19:41 11:22:49 20° 297° (WNW) 11:25:55 437.345
BUGSAT 1 23 Mar 11:19:49 11:21:09 11° 57° (ENE) 11:22:29 437.445
ESTCUBE 1 23 Mar 11:28:44 11:30:45 13° 88° (E) 11:32:44 437.505/2401.250
NANOSAT C BR1 23 Mar 11:29:47 11:33:44 38° 69° (ENE) 11:37:41 145.865
EO-79 23 Mar 11:31:53 11:35:56 43° 70° (ENE) 11:40:00 145.935-145.965
RS-15 23 Mar 11:33:23 11:36:46 12° 90° (E) 11:40:11 29.354- 29.394
LO-87 23 Mar 11:35:48 11:38:50 24° 95° (E) 11:41:49 145.935 - 145.965
AIST 2D 23 Mar 11:40:15 11:43:48 87° 74° (ENE) 11:47:22 435.315
HO-68 23 Mar 11:44:36 11:47:48 14° 317° (NW) 11:51:00 435.675
TIGRISAT 23 Mar 11:45:50 11:48:58 18° 270° (W) 11:52:07 435.000
AO-73 23 Mar 11:51:37 11:53:08 12° 302° (WNW) 11:54:37 145.935
UNISAT 6 23 Mar 11:55:52 11:58:11 13° 272° (W) 12:00:30 437.425
POLYITAN 1 23 Mar 11:58:36 12:02:54 82° 76° (ENE) 12:07:14 437.675
QB50P2 23 Mar 12:03:03 12:07:21 84° 254° (WSW) 12:11:41 145.880/145.840
DELFI C3 23 Mar 12:03:55 12:07:03 23° 294° (WNW) 12:10:10 145.870
DUCHIFAT 1 23 Mar 12:20:54 12:25:09 71° 258° (WSW) 12:29:26 145.980
Gurwin Techsat 1B 23 Mar 12:26:01 12:28:36 14° 54° (NE) 12:31:13 435.225
SPROUT 23 Mar 12:31:43 12:34:16 15° 90° (E) 12:36:48 437.525
PCSat 23 Mar 12:33:38 12:38:40 37° 314° (NW) 12:43:45 145.827
Oscar 19 23 Mar 12:38:17 12:42:28 26° 62° (ENE) 12:46:39 437.125/150
DX 1 23 Mar 12:47:04 12:47:42 10° 87° (E) 12:48:20 434.975-435.025
50 SAT 23 Mar 12:51:07 12:53:10 15° 92° (E) 12:55:14 437.505
BUGSAT 1 23 Mar 12:51:35 12:55:49 88° 71° (ENE) 13:00:06 437.445
VELOX 1 23 Mar 12:55:28 12:59:25 30° 96° (E) 13:03:21 145.980
NO-84 23 Mar 12:55:50 12:58:12 20° 10° (N) 13:00:41 435.350 FM
ESTCUBE 1 23 Mar 13:03:34 13:08:05 76° 286° (WNW) 13:12:35 437.505/2401.250
NANOSAT C BR1 23 Mar 13:06:09 13:09:33 23° 267° (W) 13:12:59 145.865
FO-29 23 Mar 13:08:02 13:11:32 13° 278° (W) 13:15:00 435.910
EO-79 23 Mar 13:08:41 13:11:53 20° 268° (W) 13:15:07 145.935-145.965
LO-87 23 Mar 13:09:08 13:12:15 27° 292° (WNW) 13:15:21 145.935 - 145.965
AO-7 23 Mar 13:16:20 13:21:29 18° 41° (NE) 13:26:37 .
UKube-1 23 Mar 13:32:04 13:35:27 22° 93° (E) 13:38:49 .
RS-15 23 Mar 13:34:36 13:46:03 54° 113° (ESE) 13:57:49 29.354- 29.394
POLYITAN 1 23 Mar 13:38:06 13:39:16 11° 273° (W) 13:40:26 437.675
Gurwin Techsat 1B 23 Mar 14:02:23 14:07:42 78° 73° (ENE) 14:13:02 435.225
SPROUT 23 Mar 14:06:19 14:10:34 58° 287° (WNW) 14:14:46 437.525
Oscar 19 23 Mar 14:16:35 14:21:32 48° 261° (W) 14:26:30 437.125/150
ITAMSAT 1 23 Mar 14:17:41 14:21:44 23° 60° (ENE) 14:25:46 435.822/435.867
DX 1 23 Mar 14:20:06 14:24:31 89° 294° (WNW) 14:28:55 434.975-435.025
PCSat 23 Mar 14:21:24 14:23:42 13° 338° (NNW) 14:26:01 145.827
50 SAT 23 Mar 14:23:07 14:26:26 40° 289° (WNW) 14:29:43 437.505
VELOX 1 23 Mar 14:31:54 14:35:51 32° 294° (WNW) 14:39:48 145.980
NO-84 23 Mar 14:33:06 14:36:13 58° 30° (NNE) 14:39:35 435.350 FM
ESTCUBE 1 23 Mar 14:43:05 14:44:06 11° 304° (NW) 14:45:07 437.505/2401.250
AO-7 23 Mar 15:04:32 15:12:41 62° 63° (ENE) 15:20:50 .
UKube-1 23 Mar 15:07:34 15:11:39 41° 291° (WNW) 15:15:43 .
BEESAT 23 Mar 15:29:27 15:33:37 29° 95° (E) 15:37:45 436.000
SO-50 23 Mar 15:31:40 15:35:09 21° 113° (ESE) 15:38:36 436.795
ITUPSAT 1 23 Mar 15:43:08 15:47:36 38° 98° (E) 15:52:01 437.325
Gurwin Techsat 1B 23 Mar 15:45:03 15:48:15 16° 271° (W) 15:51:29 435.225
RS-15 23 Mar 15:46:33 15:58:33 61° 319° (NW) 16:10:51 29.354- 29.394
ITAMSAT 1 23 Mar 15:55:39 16:00:48 58° 258° (WSW) 16:05:59 435.822/435.867
DX 1 23 Mar 15:58:19 16:00:01 12° 303° (WNW) 16:01:43 434.975-435.025
NO-84 23 Mar 16:11:00 16:13:35 21° 226° (SW) 16:16:22 435.350 FM
MOZHAYETS 4 23 Mar 16:16:37 16:20:51 36° 97° (E) 16:25:03
KKS-1 23 Mar 16:25:47 16:26:10 10° 87° (E) 16:26:31 437.445
DOVE 4 23 Mar 16:49:52 16:52:30 15° 57° (ENE) 16:55:12 437.250
AO-7 23 Mar 16:58:26 17:05:52 35° 264° (W) 17:13:20 .
CUBESAT XI-V 23 Mar 17:00:13 17:03:33 19° 91° (E) 17:06:53 437.345
XW-2D 23 Mar 17:06:39 17:08:03 12° 60° (ENE) 17:09:25 145.860 - 145.880
BEESAT 23 Mar 17:07:05 17:11:26 36° 293° (WNW) 17:15:46 436.000
STARS 23 Mar 17:09:50 17:12:04 14° 89° (E) 17:14:16 437.465
SO-50 23 Mar 17:10:40 17:15:15 59° 311° (NW) 17:19:48 436.795
XW-2B 23 Mar 17:12:03 17:13:50 13° 61° (ENE) 17:15:37 145.730 - 145.750
NUDT-PHONESAT 23 Mar 17:18:11 17:19:43 12° 61° (ENE) 17:21:14 437.300
KAITUO 1B 23 Mar 17:20:53 17:22:40 13° 62° (ENE) 17:24:27 145.475/437.950
ITUPSAT 1 23 Mar 17:21:14 17:25:18 28° 296° (WNW) 17:29:20 437.325
XW-2C 23 Mar 17:21:21 17:23:46 16° 63° (ENE) 17:26:11 145.795 - 145.815
CUTE-I 23 Mar 17:22:02 17:26:17 25° 61° (ENE) 17:30:34 437.470
PCSat 23 Mar 17:51:58 17:55:39 18° 32° (NNE) 17:59:18 145.827
MOZHAYETS 4 23 Mar 17:54:02 17:57:53 27° 295° (WNW) 18:01:42
KKS-1 23 Mar 17:58:52 18:03:24 88° 111° (ESE) 18:07:53 437.445
RS-15 23 Mar 18:03:14 18:14:14 35° 350° (N) 18:25:13 29.354- 29.394
LilacSat-2 23 Mar 18:09:28 18:13:14 54° 73° (ENE) 18:16:59 437.200
XW-2F 23 Mar 18:14:09 18:17:52 57° 74° (ENE) 18:21:36 145.980 - 146.000
O/OREOS (USA 219) 23 Mar 18:18:13 18:22:43 68° 112° (ESE) 18:27:16 437.305
XW-2A 23 Mar 18:22:52 18:23:54 11° 62° (ENE) 18:24:56 145.665 - 145.685
DOVE 4 23 Mar 18:24:48 18:29:26 84° 258° (WSW) 18:34:24 437.250
CUBESAT XI-V 23 Mar 18:36:43 18:41:14 52° 289° (WNW) 18:45:45 437.345
M-CUBED/EXP-1 PRIME 23 Mar 18:37:30 18:40:26 17° 96° (E) 18:43:24 437.505
XW-2D 23 Mar 18:37:54 18:41:42 71° 257° (WSW) 18:45:31 145.860 - 145.880
HO-68 23 Mar 18:39:08 18:45:32 37° 60° (ENE) 18:51:56 435.675
XW-2B 23 Mar 18:43:47 18:47:34 62° 260° (W) 18:51:21 145.730 - 145.750
STARS 23 Mar 18:44:28 18:48:54 70° 287° (WNW) 18:53:17 437.465
YUBILEINY 23 Mar 18:45:19 18:53:27 41° 69° (ENE) 19:01:32 435.215
CUBEBUG 2 23 Mar 18:45:56 18:47:54 12° 57° (ENE) 18:49:51 437.445
NUDT-PHONESAT 23 Mar 18:49:25 18:53:09 65° 259° (W) 18:56:53 437.300
KAITUO 1B 23 Mar 18:52:31 18:56:15 59° 260° (W) 18:59:58 145.475/437.950
SO-50 23 Mar 18:53:52 18:56:38 16° 333° (NNW) 18:59:24 436.795
XW-2C 23 Mar 18:53:56 18:57:38 46° 261° (W) 19:01:20 145.795 - 145.815
CUTE-I 23 Mar 19:00:43 19:05:59 56° 259° (W) 19:11:18 437.470
AAUSAT CUBESAT 2 23 Mar 19:29:54 19:32:47 19° 64° (ENE) 19:35:41 437.432
SEEDS 23 Mar 19:34:33 19:38:25 39° 70° (ENE) 19:42:19 437.485
PCSat 23 Mar 19:34:38 19:40:05 67° 54° (NE) 19:45:29 145.827
CUTE 1.7 + AOD 2 23 Mar 19:34:52 19:39:00 59° 73° (ENE) 19:43:09 437.475
KKS-1 23 Mar 19:37:15 19:39:17 13° 303° (WNW) 19:41:19 437.445
AO-73 23 Mar 19:37:44 19:39:51 13° 59° (ENE) 19:41:58 145.935
LilacSat-2 23 Mar 19:45:57 19:47:50 13° 270° (W) 19:49:44 437.200
STRAND 1 23 Mar 19:47:18 19:51:27 24° 93° (E) 19:55:33 437.568
XW-2F 23 Mar 19:50:42 19:52:23 12° 271° (W) 19:54:03 145.980 - 146.000
XW-2A 23 Mar 19:52:46 19:56:11 61° 259° (W) 19:59:38 145.665 - 145.685
UWE-3 23 Mar 19:52:59 19:57:04 31° 67° (ENE) 20:01:08 435.000/436.395/437.385
O/OREOS (USA 219) 23 Mar 19:59:26 20:02:37 18° 312° (NW) 20:05:50 437.305
DOVE 4 23 Mar 20:07:05 20:08:00 10° 277° (W) 20:08:56 437.250
M-CUBED/EXP-1 PRIME 23 Mar 20:10:41 20:15:13 67° 292° (WNW) 20:19:52 437.505
CUBEBUG 2 23 Mar 20:18:59 20:23:45 82° 75° (ENE) 20:28:30 437.445
RS-15 23 Mar 20:19:21 20:30:55 42° 24° (NNE) 20:42:11 29.354- 29.394
HO-68 23 Mar 20:26:06 20:33:02 53° 259° (W) 20:40:02 435.675
Oscar 11 23 Mar 20:39:40 20:43:41 40° 70° (ENE) 20:47:44 .
ZACube-1 23 Mar 20:40:42 20:45:08 53° 72° (ENE) 20:49:32 437.345
YUBILEINY 23 Mar 20:42:10 20:50:28 51° 271° (W) 20:58:45 435.215
AAUSAT CUBESAT 2 23 Mar 21:04:00 21:07:57 45° 261° (W) 21:11:55 437.432
AO-73 23 Mar 21:10:54 21:15:28 86° 259° (W) 21:19:59 145.935
SEEDS 23 Mar 21:11:05 21:14:15 21° 267° (W) 21:17:28 437.485
CUTE 1.7 + AOD 2 23 Mar 21:12:53 21:15:14 15° 271° (W) 21:17:35 437.475
AO-85 23 Mar 21:14:49 21:16:48 13° 111° (ESE) 21:18:44 145.980
DELFI C3 23 Mar 21:17:08 21:20:34 30° 68° (ENE) 21:24:01 145.870
PCSat 23 Mar 21:18:57 21:22:59 21° 253° (WSW) 21:26:59 145.827
STRAND 1 23 Mar 21:25:56 21:30:52 49° 291° (WNW) 21:35:46 437.568
UWE-3 23 Mar 21:29:13 21:33:27 33° 264° (W) 21:37:40 435.000/436.395/437.385
M-CUBED/EXP-1 PRIME 23 Mar 21:47:24 21:48:53 11° 310° (NW) 21:50:22 437.505
CUBEBUG 2 23 Mar 21:58:44 22:00:56 13° 273° (W) 22:03:08 437.445
UNISAT 6 23 Mar 22:06:50 22:08:52 13° 87° (E) 22:10:52 437.425
PRISM 23 Mar 22:14:24 22:17:59 27° 96° (E) 22:21:33 437.425
LO-87 23 Mar 22:15:29 22:17:50 17° 64° (ENE) 22:20:12 145.935 - 145.965
Oscar 11 23 Mar 22:16:36 22:19:59 22° 267° (W) 22:23:22 .
ZACube-1 23 Mar 22:18:30 22:21:42 19° 269° (W) 22:24:53 437.345
SO-50 23 Mar 22:19:25 22:21:39 13° 23° (NNE) 22:23:54 436.795
ISS 23 Mar 22:24:15 22:26:59 24° 140° (SE) 22:29:44 437.550
FO-29 23 Mar 22:26:42 22:30:18 16° 84° (E) 22:33:41 435.910
ESTCUBE 1 23 Mar 22:30:49 22:33:51 18° 61° (ENE) 22:36:53 437.505/2401.250
RS-15 23 Mar 22:32:47 22:45:14 88° 53° (NE) 22:57:08 29.354- 29.394
Tancredo 1 23 Mar 22:37:54 22:40:49 34° 144° (SE) 22:43:44 437.200
DELFI C3 23 Mar 22:52:08 22:55:22 24° 266° (W) 22:58:37 145.870
AO-85 23 Mar 22:52:19 22:56:42 81° 309° (NW) 23:00:48 145.980
SPROUT 23 Mar 23:27:56 23:30:54 18° 62° (ENE) 23:33:52 437.525
50 SAT 23 Mar 23:29:19 23:29:59 10° 60° (ENE) 23:30:38 437.505
TIGRISAT 23 Mar 23:32:23 23:36:54 85° 105° (ESE) 23:41:16 435.000
UNISAT 6 23 Mar 23:41:39 23:46:08 73° 286° (WNW) 23:50:30 437.425
POLYITAN 1 23 Mar 23:43:00 23:43:57 11° 87° (E) 23:44:53 437.675
DX 1 23 Mar 23:44:27 23:46:54 15° 59° (ENE) 23:49:22 434.975-435.025
QB50P2 23 Mar 23:46:34 23:48:32 13° 89° (E) 23:50:29 145.880/145.840
LO-87 23 Mar 23:47:37 23:51:00 39° 262° (W) 23:54:27 145.935 - 145.965
BEESAT 3 23 Mar 23:48:10 23:51:52 41° 120° (ESE) 23:55:39 437.485
PRISM 23 Mar 23:49:36 23:53:15 31° 293° (WNW) 23:56:55 437.425
VELOX 1 23 Mar 23:55:23 23:59:27 38° 68° (ENE) 00:03:35 145.980
BEESAT 2 23 Mar 23:57:40 00:00:47 22° 115° (ESE) 00:03:56 435.950
SO-50 23 Mar 23:58:52 00:03:14 46° 45° (NE) 00:07:34 436.795
ISS 23 Mar 23:59:58 00:03:13 67° 337° (NNW) 00:06:32 437.550
DUCHIFAT 1 24 Mar 00:03:07 00:05:32 15° 90° (E) 00:07:56 145.980
ESTCUBE 1 24 Mar 00:05:50 00:10:14 58° 259° (W) 00:14:41 437.505/2401.250
FO-29 24 Mar 00:10:03 00:16:26 85° 289° (WNW) 00:22:03 435.910
Tancredo 1 24 Mar 00:13:45 00:16:53 53° 342° (NNW) 00:20:02 437.200
UKube-1 24 Mar 00:29:14 00:32:54 28° 65° (ENE) 00:36:34 .
BUGSAT 1 24 Mar 00:33:10 00:33:50 10° 87° (E) 00:34:30 437.445
AO-85 24 Mar 00:35:04 00:37:41 16° 327° (NNW) 00:40:14 145.980
AIST 2D 24 Mar 00:35:35 00:39:05 70° 101° (ESE) 00:42:33 435.315
NANOSAT C BR1 24 Mar 00:46:18 00:50:23 44° 99° (E) 00:54:25 145.865
RS-15 24 Mar 00:46:25 00:56:14 30° 258° (WSW) 01:05:45 29.354- 29.394
EO-79 24 Mar 00:48:53 00:53:03 52° 100° (E) 00:57:11 145.935-145.965
50 SAT 24 Mar 00:59:06 01:02:31 66° 258° (WSW) 01:05:59 437.505
SPROUT 24 Mar 01:02:14 01:06:26 53° 260° (W) 01:10:41 437.525
TIGRISAT 24 Mar 01:10:53 01:12:54 13° 303° (WNW) 01:14:53 435.000
POLYITAN 1 24 Mar 01:16:03 01:20:19 82° 287° (WNW) 01:24:33 437.675
DX 1 24 Mar 01:18:14 01:22:33 71° 258° (WSW) 01:26:56 434.975-435.025
QB50P2 24 Mar 01:20:33 01:24:48 68° 287° (WNW) 01:29:00 145.880/145.840
UNISAT 6 24 Mar 01:21:46 01:21:59 10° 305° (NW) 01:22:12 437.425
BEESAT 3 24 Mar 01:26:14 01:29:37 27° 319° (NW) 01:33:04 437.485
VELOX 1 24 Mar 01:32:28 01:36:02 24° 266° (W) 01:39:39 145.980
BEESAT 2 24 Mar 01:34:30 01:38:19 44° 314° (NW) 01:42:12 435.950
ISS 24 Mar 01:36:58 01:40:03 35° 359° (N) 01:43:09 437.550
DUCHIFAT 1 24 Mar 01:37:25 01:41:35 58° 288° (WNW) 01:45:42 145.980
SO-50 24 Mar 01:39:45 01:43:29 26° 245° (WSW) 01:47:13 436.795
Tancredo 1 24 Mar 01:50:27 01:53:26 34° 2° (N) 01:56:25 437.200
FO-29 24 Mar 01:56:32 02:00:26 17° 309° (NW) 02:04:05 435.910
UKube-1 24 Mar 02:04:57 02:08:50 33° 263° (W) 02:12:45 .
BUGSAT 1 24 Mar 02:05:33 02:09:48 83° 284° (WNW) 02:13:57 437.445
AIST 2D 24 Mar 02:11:36 02:11:46 10° 299° (WNW) 02:11:57 435.315
Gurwin Techsat 1B 24 Mar 02:16:04 02:20:20 24° 92° (E) 02:24:35 435.225
NANOSAT C BR1 24 Mar 02:22:40 02:25:49 20° 297° (WNW) 02:28:56 145.865
Oscar 19 24 Mar 02:24:41 02:29:41 47° 99° (E) 02:34:39 437.125/150
EO-79 24 Mar 02:25:32 02:28:27 18° 298° (WNW) 02:31:21 145.935-145.965
BEESAT 24 Mar 02:38:26 02:43:02 48° 69° (ENE) 02:47:38 436.000
O/OREOS (USA 219) 24 Mar 02:46:12 02:50:16 29° 54° (NE) 02:54:19 437.305
ITUPSAT 1 24 Mar 02:52:31 02:57:15 64° 72° (ENE) 03:02:00 437.325
POLYITAN 1 24 Mar 02:54:36 02:55:22 10° 303° (WNW) 02:56:09 437.675
AO-7 24 Mar 03:04:58 03:08:59 14° 85° (E) 03:12:59 .
ISS 24 Mar 03:13:40 03:16:55 56° 18° (NNE) 03:20:11 437.550
BEESAT 2 24 Mar 03:15:51 03:17:07 11° 335° (NNW) 03:18:23 435.950
MOZHAYETS 4 24 Mar 03:21:04 03:25:31 50° 71° (ENE) 03:29:58
KKS-1 24 Mar 03:25:19 03:27:58 16° 59° (ENE) 03:30:37 437.445
Tancredo 1 24 Mar 03:26:42 03:29:54 69° 21° (NNE) 03:33:07 437.200
BUGSAT 1 24 Mar 03:43:38 03:44:24 10° 304° (WNW) 03:45:11 437.445
Gurwin Techsat 1B 24 Mar 03:55:24 04:00:35 52° 291° (WNW) 04:05:43 435.225
Oscar 19 24 Mar 04:04:29 04:08:46 27° 297° (WNW) 04:13:04 437.125/150
ITAMSAT 1 24 Mar 04:05:24 04:10:17 39° 98° (E) 04:15:07 435.822/435.867
CUBESAT XI-V 24 Mar 04:06:17 04:10:06 27° 65° (ENE) 04:13:57 437.345
STARS 24 Mar 04:08:56 04:12:03 19° 61° (ENE) 04:15:11 437.465
BEESAT 24 Mar 04:17:20 04:21:03 22° 267° (W) 04:24:46 436.000
O/OREOS (USA 219) 24 Mar 04:25:30 04:29:45 37° 253° (WSW) 04:33:58 437.305
ITUPSAT 1 24 Mar 04:32:25 04:35:31 17° 270° (W) 04:38:38 437.325
ISS 24 Mar 04:50:18 04:53:18 33° 217° (SW) 04:56:18 437.550
AO-7 24 Mar 04:55:03 05:03:21 68° 105° (ESE) 05:11:35 .
KKS-1 24 Mar 04:59:32 05:03:59 70° 258° (WSW) 05:08:29 437.445
MOZHAYETS 4 24 Mar 04:59:34 05:02:57 20° 268° (W) 05:06:20
Tancredo 1 24 Mar 05:03:13 05:05:50 23° 220° (SW) 05:08:27 437.200
M-CUBED/EXP-1 PRIME 24 Mar 05:26:02 05:29:11 27° 59° (ENE) 05:32:34 437.505
AO-85 24 Mar 05:40:41 05:44:08 28° 42° (NE) 05:47:36 145.980
CUBESAT XI-V 24 Mar 05:43:04 05:47:19 38° 263° (W) 05:51:37 437.345
STARS 24 Mar 05:43:42 05:48:02 54° 259° (W) 05:52:24 437.465
ITAMSAT 1 24 Mar 05:45:03 05:49:39 32° 296° (WNW) 05:54:12 435.822/435.867
XW-2B 24 Mar 06:15:31 06:16:31 11° 88° (E) 06:17:31 145.730 - 145.750
DOVE 4 24 Mar 06:20:42 06:25:04 25° 92° (E) 06:29:23 437.250
KAITUO 1B 24 Mar 06:23:03 06:23:53 11° 88° (E) 06:24:42 145.475/437.950
XW-2C 24 Mar 06:24:37 06:26:42 14° 90° (E) 06:28:46 145.795 - 145.815
BEESAT 3 24 Mar 06:25:25 06:27:41 14° 30° (NNE) 06:29:57 437.485
BEESAT 2 24 Mar 06:35:44 06:36:39 11° 24° (NNE) 06:37:34 435.950
